User: anonymous   Login
Location: G�ppingen
(48.7089°N, 9.6563°E)
Time: 05:08:31
(UTC+01:00)
Language:

PRISM - Orbit

View from above orbital plane
View from above orbital plane
View from above satellite
View from above satellite

Ground track
Ground track

The orbit data is extracted from the following two-line orbital elements,

1 33493U 09002B   19315.93889137  .00000797  00000-0  75067-4 0  9992
2 33493  98.1251 242.4555 0016225  61.5021 298.7831 14.96795171587028
Epoch (UTC): 11 November 2019 22:32:00
Eccentricity: 0.0016225
inclination: 98.1251°
perigee height: 565 km
apogee height: 588 km
right ascension of ascending node: 242.4555°
argument of perigee: 61.5021°
revolutions per day: 14.96795171
mean anomaly at epoch: 298.7831°
orbit number at epoch: 58702

The dashed part of the orbit path shows where the satellite is in the earth's shadow,  

DLR